Weather in Zilupe

Latvia     56°23′20″N   28°07′13″E
temp.,
°C
wind,
m/s
gust,
m/s
humid.,
%
clouds,
%
prec.,
mm/h
press.,
hPa
HPBL,
m
18 april, sun
sun1800:00+9ne3108695 0.0 1023271
03:00+7nne389236 0.0 1023223
06:00+6nne398960 0.0 1023269
09:00+8ne496411 0.0 1023444
12:00+13ne57432 0.0 10231130
15:00+15ne57393 0.0 10231640
18:00+14ne46465 0.0 10221796
21:00+8nne28695 0.0 1024173
19 april, mon
mon1900:00+6nne287877 0.0 1024183
03:00+6ne397899 0.0 1024282
06:00+6ene287881 0.0 1025303
09:00+8ene36695 0.0 1025479
12:00+12ene465345 0.1 10241777
15:00+12ene3553100 0.2 10241540
18:00+11ene4761100 0.1 1023848
21:00+9ene3773100 0.1 1023359
20 april, tue
tue2000:00+7e2882100 0.1 1023432
03:00+6ene258482 0.1 1022231
06:00+5ne2685100 0.0 1021255
09:00+7e357399 0.3 1020784
12:00+8e4561100 0.2 10191427
15:00+8e3459100 0.3 10181351
18:00+7ene2465100 0.0 1016882
21:00+6ne2575100 0.0 1016197
21 april, wed
wed2100:00+5nne2582100 0.0 1013235
03:00+4nne3690100 0.0 1011388
06:00+3nnw3893100 0.0 1009546
09:00+4nnw4985100 0.0 1007610
12:00+6nnw4877100 0.0 1006935
15:00+8nnw3767100 0.1 10051199
18:00+8nnw2566100 0.1 1006705
21:00+5s1177100 0.1 100710
22 april, thu
thu2200:00+3sw238399 0.0 100856
03:00+3wsw248366 0.0 101074
06:00+5sw2586100 0.0 1011130
09:00+9wsw246944 0.0 1013473
12:00+12ssw244862 0.2 10141801
15:00+13ssw444894 0.2 10151521
18:00+13s335712 0.3 10161197
21:00+8s228787 0.8 101842